RH
21 23 25 28 30 32 33 35 37 47 65 81 87 89 94 100 104 104 103 101 100 100 100 100 101 101 100 100 100 100 100 100 101 101 100 101 100 101 102 100 101 103 101 99 100 101 100 102 102 99 96 95 93 91 88 85 81 77 75 72 71 71 73 75 79 84 92 101 104 104 102 100 100 102 101 100 102 101 98 99 101 100 103 105 102
20 22 24 26 29 32 34 35 36 39 52 70 85 89 90 93 99 104 105 104 102 100 100 100 100 101 100 100 100 101 101 100 101 100 100 100 100 101 101 99 101 102 101 101 101 101 101 102 102 102 101 99 98 98 96 93 89 84 80 75 70 67 64 63 65 69 74 82 86 89 90 89 90 92 91 89 91 93 93 93 93 92 95 98 98
19 20 22 25 28 32 34 36 37 37 41 53 71 84 90 92 93 97 101 102 102 101 101 100 99 100 100 100 100 100 100 101 101 100 99 98 98 100 101 100 100 100 101 102 101 101 102 101 100 102 103 101 100 100 100 98 96 93 89 83 77 72 67 63 61 61 63 66 70 74 77 79 81 81 82 82 83 84 85 86 86 87 88 88 90
22 21 21 23 26 29 32 35 37 38 38 41 50 65 79 88 92 94 97 99 100 101 102 103 102 102 101 100 100 99 100 100 101 101 100 99 98 99 100 100 100 99 100 101 100 101 101 100 100 102 103 103 100 100 100 100 100 98 95 91 86 83 79 74 70 66 64 65 68 70 73 76 80 82 84 84 84 84 83 84 86 86 83 81 80
27 26 25 24 25 26 28 30 33 35 37 38 40 45 54 65 75 84 91 95 98 100 102 104 104 104 104 102 101 100 101 102 101 100 100 101 100 100 100 100 100 101 101 100 100 101 100 100 101 101 102 101 100 100 100 100 100 101 100 99 97 95 92 89 85 82 78 77 78 77 76 79 85 90 92 92 92 93 92 91 90 85 77 72 70
32 32 30 28 28 28 29 29 30 32 33 35 36 37 39 43 50 60 73 85 92 96 99 102 104 105 105 105 104 102 103 104 102 99 100 100 100 102 102 101 101 101 101 101 100 100 101 100 100 100 101 101 100 100 100 100 100 101 100 101 100 100 100 99 96 93 91 90 90 89 88 87 89 93 96 98 98 98 97 92 85 76 68 65 66
35 36 35 34 32 31 31 31 31 32 32 33 35 36 37 38 39 44 54 67 79 87 92 96 97 99 100 102 104 104 104 105 104 102 102 102 102 102 101 100 100 100 100 101 100 99 100 100 101 103 103 102 101 101 101 102 102 102 101 101 101 101 100 100 99 98 96 95 95 95 94 90 87 87 90 90 87 82 79 73 67 63 62 61 61
36 37 37 37 37 35 34 33 32 32 32 32 33 34 35 36 37 39 42 48 59 70 81 90 95 97 97 97 97 97 98 99 100 100 101 102 102 102 101 100 101 100 100 101 102 102 103 103 104 105 104 101 102 102 102 102 102 101 101 101 101 100 98 98 97 96 95 94 95 94 92 88 85 81 79 75 70 65 60 57 57 59 58 56 57
37 37 37 37 38 37 37 36 35 34 33 32 32 32 33 34 35 36 37 38 42 47 55 66 78 88 94 97 98 98 98 98 98 99 99 101 102 102 103 103 102 102 102 102 104 104 104 104 104 104 103 103 103 103 102 101 100 99 99 99 98 96 94 93 92 91 89 87 86 84 81 78 76 74 70 66 63 60 56 54 55 56 56 57 58
37 37 37 37 37 37 37 37 37 37 36 35 34 33 32 31 31 32 33 34 35 36 38 42 48 56 64 71 76 78 80 81 82 83 83 85 87 88 91 93 93 93 93 94 95 94 93 92 92 91 90 89 88 86 84 82 79 78 77 76 75 73 72 71 70 69 68 66 65 62 59 58 58 57 55 54 53 52 50 49 49 52 55 57 60
38 37 37 37 36 36 36 35 36 36 36 36 36 36 36 34 34 33 32 31 31 32 33 33 34 36 38 41 43 45 47 48 49 50 52 54 56 59 62 64 65 66 68 69 70 69 68 67 65 64 62 60 58 57 55 54 53 53 52 51 50 50 49 49 49 49 48 47 47 46 45 46 46 45 43 43 43 42 43 45 48 53 55 58 63
38 37 37 37 36 36 35 34 34 33 33 34 34 35 35 36 36 36 36 35 34 33 33 32 32 32 32 32 33 33 34 34 34 35 35 36 38 39 40 41 42 43 44 44 45 45 44 43 42 42 42 41 41 40 40 40 40 40 39 39 40 40 40 40 41 41 41 40 40 41 42 43 44 43 41 40 40 40 42 44 47 50 51 53 59
37 36 36 36 36 36 35 34 34 33 32 31 31 31 32 32 33 33 34 35 35 36 36 35 35 35 34 34 34 34 34 34 34 33 33 34 34 34 34 34 34 34 34 34 34 34 34 34 34 34 34 34 33 33 33 33 32 32 32 32 33 34 35 35 36 36 37 37 37 39 40 40 41 41 40 38 38 38 39 41 41 42 43 45 48
37 37 36 36 36 36 36 35 34 34 33 31 31 30 30 30 30 30 31 31 32 32 33 33 34 34 35 35 35 36 36 36 36 36 36 36 36 36 36 36 36 36 35 34 34 33 33 33 33 33 33 32 32 31 31 31 31 31 31 31 32 32 33 33 33 34 33 33 34 35 36 36 37 37 36 34 34 35 36 37 36 36 37 38 39
42 41 39 37 37 37 37 37 36 35 35 34 33 32 31 30 30 29 29 29 29 30 30 30 31 31 32 32 32 33 33 33 34 34 34 35 35 36 36 36 37 37 37 36 36 35 35 34 33 33 33 33 33 32 32 32 33 33 33 33 34 33 34 34 34 34 33 32 33 33 34 35 35 36 36 35 35 36 36 36 36 36 37 37 37
46 45 43 41 40 39 39 39 38 37 36 35 35 35 34 33 31 31 30 29 29 29 29 29 29 29 30 30 30 31 31 31 31 32 32 32 32 32 32 33 33 33 33 33 32 32 32 31 31 30 30 30 30 30 31 31 32 33 34 35 35 34 34 34 33 33 32 32 32 33 34 36 36 37 37 37 37 37 36 37 37 37 36 35 37
50 48 46 45 43 42 41 40 40 40 39 38 37 37 37 36 36 34 33 31 30 30 29 29 28 28 28 28 29 29 29 29 30 30 30 31 30 31 30 30 30 30 30 29 29 28 28 27 27 27 27 27 26 26 26 26 26 27 28 30 31 32 34 33 32 32 31 31 32 32 33 34 34 34 34 34 34 34 33 35 35 34 33 34 36
57 53 50 48 46 45 43 43 42 42 42 41 39 38 38 38 39 38 37 36 34 33 32 31 30 30 30 29 29 29 28 29 28 28 28 28 28 28 28 27 27 26 26 26 25 25 25 24 24 24 23 23 22 22 22 22 22 22 22 22 23 24 26 27 28 29 30 31 32 32 33 33 33 33 32 32 32 32 32 33 33 33 33 34 35
66 60 57 54 51 48 46 45 44 44 44 43 42 41 40 40 40 40 39 39 39 37 36 35 34 34 34 33 33 33 32 32 32 32 31 31 30 30 29 28 27 26 25 24 23 23 22 22 22 21 21 20 19 19 18 18 18 18 18 19 19 19 19 20 21 22 23 25 27 28 30 31 32 33 33 33 33 33 33 34 34 34 35 36 36
73 66 62 61 59 56 52 49 47 46 45 45 44 43 42 41 41 40 40 40 40 40 40 39 38 38 38 38 38 37 37 37 38 38 38 37 37 36 35 34 33 31 29 27 27 25 24 23 22 21 20 19 18 17 17 17 17 17 17 17 17 18 18 18 18 18 18 19 20 22 24 25 27 29 29 30 31 32 33 34 34 35 36 37 38
83 74 68 65 64 64 61 57 53 50 48 46 45 44 44 43 42 41 41 40 40 40 40 41 41 41 41 40 39 39 39 38 38 38 38 38 38 38 37 36 35 34 32 31 31 30 28 27 25 24 23 21 20 18 18 19 20 20 20 20 19 19 19 18 18 19 19 20 21 22 23 24 24 25 27 28 29 30 32 33 33 34 35 36 38
88 82 76 72 69 68 67 66 63 59 55 52 50 48 46 46 45 44 44 43 42 41 40 40 41 42 43 43 43 42 42 41 40 39 39 38 38 38 37 37 36 35 33 32 31 30 29 28 26 25 25 24 23 22 22 22 23 24 25 26 27 28 27 26 25 26 26 27 28 28 29 28 28 28 28 29 29 29 29 29 29 30 31 31 32
92 88 83 79 76 72 71 70 69 67 64 60 57 55 53 51 49 48 47 46 45 45 43 42 42 41 42 43 43 43 43 42 42 41 41 40 40 39 39 38 38 37 36 35 34 32 30 28 26 24 23 21 21 22 22 24 26 28 29 31 35 39 39 38 38 37 37 35 34 32 31 29 28 27 26 25 25 24 24 24 24 25 25 26 27
97 96 93 89 86 82 78 76 74 72 71 67 63 61 59 57 56 54 53 52 50 49 48 46 45 44 42 41 41 40 40 40 40 40 40 40 40 39 39 38 37 36 36 36 36 36 34 32 29 26 23 21 20 20 20 22 24 28 30 31 35 40 43 43 42 42 40 38 35 32 29 27 25 24 23 22 21 21 21 21 22 24 25 27 29
93 97 99 100 98 94 90 85 81 78 76 73 70 66 64 62 61 60 59 57 56 54 52 51 49 48 46 44 43 41 40 39 38 38 38 38 38 39 39 39 37 36 35 35 35 36 35 34 31 29 26 23 22 21 21 20 21 24 28 30 34 38 41 42 42 41 39 36 33 29 26 24 23 22 22 21 21 20 20 21 23 28 33 36 38
84 88 92 97 100 101 99 96 91 86 82 79 75 73 70 68 66 64 63 62 61 60 58 56 54 52 50 48 47 46 44 43 41 40 39 38 37 37 38 38 38 37 36 35 34 34 33 32 30 28 26 24 23 23 24 23 21 21 24 28 34 39 42 43 43 41 37 32 28 26 25 24 23 23 22 22 22 22 22 24 27 32 38 42 43
75 77 81 84 89 95 98 100 99 95 91 86 82 79 77 75 73 71 69 68 66 65 64 62 61 59 56 53 50 48 47 47 46 45 44 41 39 37 36 36 36 36 35 35 34 33 32 30 28 26 25 24 23 23 24 24 23 22 23 27 35 42 46 48 46 40 33 28 26 25 24 25 25 25 25 26 27 27 27 29 31 34 37 39 41
77 76 76 76 79 84 89 94 99 100 98 95 91 88 85 83 82 81 80 78 76 73 70 68 67 66 65 64 61 57 53 50 49 49 49 48 45 42 39 38 37 36 34 34 34 33 32 30 28 26 24 23 22 22 23 23 23 23 24 29 37 44 49 49 45 37 30 27 26 26 26 26 27 28 29 31 32 31 31 32 35 37 39 43 48
88 84 81 78 77 78 81 85 90 95 98 100 99 98 96 93 91 90 89 88 87 86 84 82 80 78 76 74 73 71 67 62 57 53 51 50 50 47 43 41 40 39 36 35 34 34 32 30 28 26 24 23 22 22 22 23 24 25 27 31 38 45 49 46 39 32 28 27 28 29 29 30 32 34 35 36 36 36 37 38 40 43 47 51 58
94 90 87 85 82 80 80 81 83 87 90 94 98 101 104 104 102 100 97 93 91 91 91 92 91 91 89 86 82 79 76 71 66 61 55 52 50 49 45 41 40 40 38 37 36 35 33 31 29 27 25 24 23 23 23 24 25 27 29 34 41 47 48 42 34 30 29 29 30 32 34 36 38 41 42 42 42 42 44 45 47 51 56 60 64
92 93 91 88 85 84 83 82 82 83 84 87 91 95 102 107 109 108 104 98 93 90 89 89 91 92 92 91 88 83 79 75 70 66 61 55 50 49 46 41 39 40 39 37 38 38 35 33 31 29 27 26 25 25 26 26 27 29 32 38 45 48 45 37 32 31 31 32 34 37 39 41 43 45 46 47 49 49 50 51 54 57 61 65 69
75 85 91 91 88 87 86 85 86 85 83 84 87 90 94 100 104 106 106 104 100 95 89 86 85 85 86 88 88 86 83 79 74 69 64 57 52 50 48 44 40 39 39 38 38 39 38 35 33 31 30 28 27 28 30 30 31 33 37 43 48 47 41 35 32 32 34 35 38 41 43 44 44 45 47 50 53 56 57 58 60 64 67 71 75
55 64 76 85 89 88 86 85 86 87 85 85 87 89 90 93 96 98 98 99 100 98 95 90 86 84 85 87 87 87 86 82 77 72 66 60 54 50 49 46 41 38 38 38 38 40 41 38 36 34 33 31 30 31 33 35 35 36 41 46 49 46 40 35 34 35 36 38 40 42 41 40 39 40 43 46 50 54 58 62 65 68 69 68 67
51 51 56 66 76 84 86 85 84 85 85 86 88 89 91 91 92 92 92 91 91 91 91 90 88 85 84 84 85 86 86 85 83 80 73 65 57 51 49 47 42 39 38 38 38 41 42 40 38 36 35 34 33 32 35 38 39 40 44 48 49 46 40 36 35 37 39 39 40 41 39 37 36 36 37 39 42 44 46 49 50 51 50 48 47
52 52 51 52 58 68 77 83 85 86 86 86 88 90 92 92 91 90 90 90 91 89 87 87 88 86 85 85 85 87 89 89 88 87 82 71 59 50 48 48 44 40 39 39 39 41 44 43 40 38 37 36 35 34 35 39 42 44 47 50 51 47 41 38 38 40 40 41 42 43 41 39 38 38 37 38 39 39 38 38 38 38 38 38 39
48 50 52 52 51 54 60 68 76 82 85 86 87 89 92 93 93 91 89 91 94 93 90 89 90 90 88 88 89 91 93 91 89 89 86 77 63 53 50 51 48 42 40 39 39 41 44 45 43 40 39 38 37 36 35 37 42 48 52 54 54 50 44 40 40 42 42 43 44 45 44 43 41 40 40 41 41 41 40 39 39 39 40 41 42
43 46 49 51 51 51 52 55 60 68 75 80 83 86 89 94 96 96 94 94 96 96 95 93 92 91 89 87 87 89 91 91 89 90 91 85 70 57 53 54 52 46 42 41 41 41 44 46 45 43 41 40 39 39 38 37 40 48 56 59 59 55 48 43 43 45 45 45 45 45 44 43 43 42 42 42 43 43 43 43 42 43 45 47 48
40 42 45 48 49 50 51 51 51 55 60 66 72 78 84 91 96 99 99 99 99 100 98 96 94 93 91 89 87 88 90 90 88 90 92 86 72 60 56 56 55 50 44 42 42 42 43 46 46 44 43 41 39 40 40 38 39 46 56 63 63 60 55 48 46 48 49 47 45 44 43 43 43 43 42 42 43 44 45 46 48 50 51 52 52
34 38 41 45 48 50 51 52 51 51 51 54 59 66 75 86 94 99 100 101 102 102 101 99 98 98 97 96 93 91 92 91 90 91 92 85 74 65 61 60 58 53 46 41 43 44 44 45 46 45 44 43 40 40 42 42 40 42 52 62 65 63 60 54 50 51 52 50 46 44 44 43 43 42 42 42 43 44 46 49 53 57 57 55 54
30 33 36 40 44 48 50 53 54 53 53 52 54 59 68 79 89 96 101 104 105 105 105 105 105 104 104 103 100 97 96 96 97 99 96 86 75 70 66 61 59 56 48 41 41 44 45 45 46 45 44 43 41 40 42 44 43 41 47 58 64 65 64 60 55 53 53 52 48 44 44 44 43 42 43 44 43 43 45 49 55 59 59 58 57
27 29 31 34 38 42 46 50 52 54 55 56 57 59 63 70 78 87 95 101 104 106 108 110 110 111 111 109 106 104 102 102 105 107 100 87 78 77 72 64 60 60 52 41 39 44 47 47 46 45 44 43 42 41 42 45 45 43 44 51 62 68 69 66 61 56 54 54 51 46 43 44 44 44 44 45 46 46 46 49 54 60 62 63 63
26 27 29 31 33 36 39 43 47 51 54 58 60 61 62 64 68 74 81 86 90 95 100 103 106 109 111 111 111 109 107 108 111 109 99 86 82 82 77 66 62 63 56 44 37 42 48 50 48 46 44 43 42 42 43 45 47 46 43 44 55 67 74 74 70 64 58 55 53 50 46 43 44 45 46 47 49 51 52 53 56 61 65 68 68
28 27 27 28 30 32 35 37 41 45 50 55 60 63 65 65 65 66 68 70 73 77 82 87 91 96 101 106 109 110 110 112 111 105 94 86 84 84 78 68 64 64 60 48 38 38 46 52 51 47 45 45 43 43 44 46 49 50 46 41 46 60 74 80 80 75 67 60 55 53 50 45 43 44 47 48 50 52 54 56 58 61 64 68 69
36 33 30 28 28 29 31 33 36 39 43 48 54 60 64 66 67 65 64 62 61 63 65 69 74 82 90 97 103 107 109 109 104 96 89 86 84 81 76 69 64 64 62 52 40 36 43 53 55 50 47 46 45 44 45 47 49 51 50 45 41 48 64 78 84 84 79 72 63 57 53 49 46 43 43 46 48 50 51 53 56 58 61 64 66
40 40 39 35 32 29 28 29 32 35 38 42 46 52 58 63 67 67 66 63 60 57 57 58 62 68 77 86 95 100 102 99 93 88 86 85 82 78 74 69 65 65 63 56 44 36 39 50 57 54 49 47 46 45 45 47 49 51 51 48 43 42 50 65 78 85 86 83 77 68 60 55 52 48 44 43 44 46 48 49 50 52 55 58 60
35 36 39 41 40 37 33 29 28 30 33 37 41 45 50 55 60 64 66 65 62 59 57 56 56 60 67 76 85 90 91 88 86 86 86 83 79 75 71 67 64 64 64 59 49 38 36 45 56 58 52 48 47 47 46 47 48 49 49 49 47 43 43 50 64 76 83 86 86 83 75 66 60 56 53 49 45 45 45 46 47 48 49 50 52
29 28 30 34 39 41 41 38 34 30 29 31 34 39 43 48 53 57 61 62 62 61 60 58 57 58 61 67 73 78 80 81 83 85 85 81 76 72 68 65 62 62 62 60 54 43 37 41 52 59 56 50 48 48 48 48 48 47 45 45 46 46 44 44 51 62 72 80 86 89 87 81 73 66 61 57 54 50 47 46 46 46 47 48 48
26 25 25 26 29 33 38 42 42 39 34 30 30 33 38 42 47 51 55 57 60 61 60 59 58 59 60 63 67 71 74 77 79 80 80 78 75 70 65 62 60 58 57 57 54 47 40 40 48 57 58 53 50 49 49 50 50 48 44 41 42 44 46 46 47 50 58 67 77 84 89 91 88 82 74 67 62 58 55 52 49 47 46 46 46
25 25 24 24 24 24 28 32 37 41 42 39 34 32 32 36 41 45 48 52 55 57 58 58 59 59 62 64 67 69 72 73 74 74 74 74 72 68 63 59 56 53 53 53 51 48 43 40 45 54 58 56 52 51 51 52 53 53 48 41 37 39 44 48 50 50 50 54 62 72 80 87 92 92 88 82 75 69 64 61 58 55 52 49 48
25 24 23 23 23 22 23 24 26 31 36 39 40 38 34 32 34 38 42 46 50 52 55 57 58 59 63 66 68 69 70 70 69 69 69 69 69 65 60 56 52 49 48 49 49 46 43 41 43 51 58 58 54 52 52 52 54 56 55 48 39 35 38 44 51 54 55 54 54 57 64 73 80 86 89 90 87 81 76 71 66 62 60 58 56
26 24 22 21 21 21 21 21 22 23 25 28 33 38 40 38 35 34 35 39 43 46 50 54 56 58 62 64 66 68 68 67 66 65 66 67 66 62 56 52 49 45 44 46 46 45 43 41 42 48 56 59 57 55 53 53 54 56 59 57 48 38 34 37 45 54 60 62 60 57 55 57 63 69 76 83 86 87 85 82 78 73 69 66 63
Wind_Speed
32 35 40 47 52 56 60 64 68 74 81 86 88 89 90 92 94 96 98 99 99 99 99 99 99 99 98 98 98 97 97 98 98 98 98 98 97 96 95 94 93 93 93 92 91 90 89 89 89 89 88 87 86 86 85 84 83 81 80 79 78 77 76 75 72 70 73 78 81 83 83 83 84 85 87 88 90 92 92 92 92 93 93 94 96
30 33 36 40 45 50 56 59 62 67 73 80 84 86 87 88 90 92 95 97 98 99 100 100 100 100 100 99 99 98 98 98 98 98 98 98 97 96 96 95 95 95 95 95 94 93 93 92 92 92 93 92 91 91 90 90 89 87 86 84 83 81 80 78 76 74 74 77 81 83 84 85 85 86 88 89 90 92 92 93 93 93 93 93 94
29 31 34 37 41 46 50 55 58 61 66 72 79 83 86 87 88 89 91 93 95 97 98 100 100 101 101 101 101 100 100 100 99 99 98 98 97 96 96 96 96 96 97 97 96 96 95 95 95 96 96 96 95 95 95 95 94 93 92 91 89 87 86 84 81 79 77 78 81 83 85 86 87 88 89 91 92 92 93 94 94 94 94 95 95
26 28 32 36 40 43 47 51 55 58 61 65 71 77 82 85 87 88 89 91 92 93 94 96 99 100 101 102 102 102 102 102 102 101 101 101 100 99 99 99 99 99 98 98 98 98 98 98 98 98 98 98 98 98 98 98 98 97 97 95 94 93 92 91 88 86 84 82 83 85 87 88 89 91 92 93 94 95 95 96 96 96 97 97 97
22 25 29 34 38 42 44 48 51 55 58 61 65 69 74 79 83 86 88 90 91 91 92 93 94 96 98 100 101 102 102 103 103 103 104 104 104 104 104 104 103 102 102 101 101 100 100 100 100 100 101 101 101 102 102 101 101 101 100 99 99 98 97 96 95 94 92 90 89 90 90 91 93 95 96 97 98 98 98 98 99 100 100 99 99
18 22 26 31 36 40 44 46 49 51 54 57 61 64 67 70 74 78 82 85 87 88 90 91 92 93 94 96 97 98 99 100 101 102 103 104 105 106 106 105 105 105 104 104 103 103 103 103 103 103 103 104 104 105 105 104 103 103 102 102 102 102 101 101 100 99 98 96 96 96 95 96 97 98 100 101 101 101 101 101 102 102 101 101 100
15 18 22 27 32 37 42 45 48 51 53 55 57 60 63 65 68 71 75 78 82 84 87 88 89 90 91 92 94 95 96 97 98 99 101 102 103 104 104 105 105 106 106 106 106 106 105 105 105 105 105 105 105 105 105 105 104 104 104 104 104 104 104 103 103 102 102 101 101 100 100 100 99 100 101 102 102 102 102 102 101 101 100 100 100
13 16 18 22 26 31 36 41 45 48 51 54 56 58 60 62 65 67 70 73 77 80 84 87 89 90 91 91 92 93 94 95 96 97 98 99 100 101 103 104 105 106 107 107 107 107 106 106 106 105 105 105 105 105 105 105 104 104 104 105 105 104 104 104 104 103 103 103 102 102 102 101 101 101 101 102 102 101 101 100 99 99 100 99 99
13 15 16 19 22 25 29 34 38 42 46 50 53 56 58 60 62 64 66 69 71 75 78 81 85 88 91 93 94 95 95 96 96 97 98 98 98 99 100 100 101 102 103 104 104 105 104 104 105 105 105 105 105 105 105 105 104 104 104 104 104 104 104 103 103 103 103 102 102 102 101 101 100 101 101 101 100 100 100 99 97 98 98 97 97
13 14 16 17 19 22 24 28 31 35 39 42 46 50 53 56 58 61 63 65 68 70 72 75 77 81 84 87 90 91 93 94 95 95 95 95 95 96 96 97 98 98 99 100 101 101 102 102 102 103 103 103 103 103 103 103 102 102 102 102 101 101 101 100 100 100 100 99 99 99 98 97 97 98 98 97 97 97 97 96 95 95 95 95 95
15 16 17 17 19 20 22 24 26 29 32 35 38 41 45 48 51 54 57 60 62 65 67 70 72 74 76 79 81 83 84 86 87 88 89 90 90 91 92 93 94 95 96 97 97 98 99 99 99 99 99 99 99 99 98 98 98 97 97 97 97 96 96 96 96 96 96 95 95 95 94 93 94 94 93 93 93 93 92 92 92 92 92 92 93
17 17 18 18 19 21 22 23 25 26 28 30 32 34 37 40 43 46 49 52 54 57 60 63 65 68 70 72 74 76 78 80 81 82 83 85 86 87 88 89 90 91 92 92 93 94 94 94 94 95 95 95 94 94 94 94 94 93 93 93 93 93 93 93 93 93 93 92 92 92 91 91 91 91 91 90 90 90 89 89 89 90 90 90 91
18 18 18 19 19 20 22 23 24 26 27 28 29 31 33 34 36 39 41 43 46 48 51 54 56 59 61 64 66 68 70 73 75 76 78 80 81 82 84 85 86 87 88 88 89 90 91 91 91 91 92 92 92 92 92 91 91 91 91 91 91 91 91 91 91 92 91 91 90 90 90 90 90 90 90 89 88 88 88 89 89 89 89 89 90
19 19 19 19 19 20 21 22 23 25 26 27 28 29 31 32 34 35 37 39 40 42 44 47 49 51 53 56 58 60 62 64 66 68 70 72 74 76 77 79 81 82 84 84 85 86 86 87 87 88 88 89 89 89 89 89 88 88 88 88 88 88 89 89 89 89 89 88 88 88 88 88 88 88 88 88 87 87 87 87 88 88 88 88 88
21 21 21 20 20 20 20 21 22 23 24 25 27 28 29 30 31 33 35 36 38 40 41 43 45 47 49 51 52 54 56 58 60 62 64 66 68 70 71 73 75 77 79 80 81 82 82 82 83 83 84 84 85 85 85 85 85 85 86 86 86 86 86 86 86 86 86 85 85 85 85 86 86 86 86 85 85 85 85 85 86 86 86 86 86
22 23 23 22 21 20 20 20 20 21 22 23 24 26 27 28 29 30 32 34 36 38 40 41 43 45 47 49 51 52 54 56 57 59 61 62 64 66 67 69 71 73 74 76 77 78 78 79 79 80 80 81 82 82 82 82 82 83 83 84 84 84 84 85 85 85 84 83 83 83 83 83 84 84 84 84 84 84 84 84 84 85 85 84 84
25 24 24 23 23 22 21 20 20 20 20 21 22 23 24 25 26 27 29 30 32 34 36 39 41 43 45 47 49 51 53 54 56 58 59 61 62 64 65 67 68 69 71 72 73 74 74 75 75 76 77 78 79 79 79 79 80 80 80 81 82 82 83 84 84 83 83 82 82 82 82 82 83 83 83 83 83 83 83 82 83 84 83 82 82
28 27 26 25 25 24 23 22 21 20 20 20 21 21 22 23 24 25 25 26 28 29 31 34 36 38 41 43 45 47 49 51 53 54 56 58 59 61 62 64 65 66 68 68 69 69 70 70 71 71 72 73 74 75 75 76 76 77 77 78 78 79 80 80 80 80 81 81 81 81 81 81 81 81 82 82 82 82 82 81 82 82 81 80 80
28 29 29 28 27 26 24 23 22 21 21 21 21 21 21 22 22 23 24 24 25 26 27 28 30 31 33 36 38 40 42 44 46 48 50 52 53 55 57 58 60 61 62 63 64 64 65 65 66 66 67 68 69 69 69 70 71 71 72 73 74 75 76 76 76 76 77 77 77 78 78 78 78 78 79 79 79 79 79 78 78 78 77 77 77
28 29 29 29 29 29 28 26 24 23 22 22 22 21 21 22 22 23 23 23 23 24 25 25 26 27 28 30 31 33 35 37 39 40 42 44 46 48 50 52 53 55 56 57 58 59 60 61 62 62 63 64 64 64 64 63 64 65 65 66 67 68 69 69 70 70 70 70 71 71 72 73 73 74 74 75 75 75 75 75 75 74 74 74 74
28 29 29 30 30 30 30 30 28 27 25 24 23 22 22 22 23 23 23 24 24 24 24 25 25 26 27 28 29 30 31 33 34 35 37 39 40 42 44 46 48 50 52 53 54 55 56 57 58 59 60 61 61 60 60 59 58 59 59 60 60 61 62 63 63 63 63 63 64 65 66 67 68 69 70 71 71 72 72 72 73 72 72 72 72
28 29 30 30 30 30 30 31 31 30 29 28 27 26 25 24 24 24 24 25 25 25 25 25 25 26 27 27 29 30 30 32 33 34 35 36 37 39 41 42 44 46 47 49 50 52 53 54 56 57 57 58 58 58 57 57 56 56 56 55 55 56 58 58 58 58 59 59 60 61 63 64 65 66 67 68 68 69 69 70 70 71 71 71 71
27 28 30 31 32 32 31 31 31 32 32 32 31 30 29 28 27 26 26 26 26 26 26 26 27 27 27 28 28 29 30 31 32 33 35 35 37 38 39 41 42 43 44 46 48 50 51 52 53 54 55 55 55 55 55 55 56 55 55 54 53 54 55 56 56 57 58 58 59 60 61 62 63 63 64 65 65 66 67 67 68 69 69 70 69
28 28 29 30 32 33 33 33 33 33 33 33 33 33 32 32 31 30 30 29 29 29 29 29 29 29 29 30 30 30 31 31 32 33 34 35 36 37 38 39 41 42 43 44 45 48 50 52 52 53 53 53 52 52 53 54 54 55 54 53 53 53 53 54 54 55 56 57 58 59 60 61 61 61 62 63 64 64 64 64 65 66 67 68 68
31 30 30 30 31 33 34 34 34 34 34 34 34 34 34 34 34 34 33 33 33 33 33 33 32 32 32 32 32 33 33 33 34 34 35 36 36 37 38 39 40 41 42 42 44 46 49 51 52 53 52 51 50 49 50 51 52 53 53 53 52 52 52 52 52 53 54 55 56 58 59 59 59 60 61 62 62 62 62 61 61 61 63 64 65
35 34 33 32 32 33 34 35 35 35 35 35 35 36 36 36 37 37 36 36 36 37 37 37 37 37 37 36 36 36 36 36 37 37 38 38 38 37 38 39 40 41 41 41 43 45 47 50 51 52 52 51 49 48 48 49 50 50 51 51 50 50 50 50 50 51 53 54 55 56 56 57 58 59 59 60 60 59 58 57 56 56 58 60 62
40 39 37 36 35 35 35 36 36 37 37 36 36 36 37 38 38 39 39 39 39 39 40 40 40 41 41 41 41 40 40 40 40 41 41 42 42 40 40 40 40 41 41 41 42 44 46 48 49 50 51 50 49 48 47 48 48 48 49 49 48 49 49 49 50 51 52 52 53 53 54 55 55 56 56 55 55 55 53 52 52 52 54 56 57
44 43 42 41 39 38 38 38 38 38 39 39 38 38 38 38 39 40 40 41 41 42 42 42 43 43 44 45 45 46 45 45 44 44 45 45 46 45 44 43 42 42 41 40 41 42 45 46 47 48 49 49 48 47 46 46 46 46 46 46 46 47 47 48 49 50 50 51 51 52 52 51 51 51 50 50 49 49 48 47 46 47 48 49 48
47 46 46 45 44 43 42 41 41 40 40 40 40 40 40 40 40 41 41 42 42 43 43 44 44 45 46 46 47 48 49 49 48 47 47 47 47 48 47 46 45 44 42 41 40 41 43 44 45 46 46 46 46 45 45 45 44 44 43 44 44 45 45 46 47 48 48 49 49 49 48 47 46 45 44 43 43 42 41 41 41 41 42 42 41
51 49 48 48 47 47 46 45 45 44 43 43 42 42 42 42 43 43 43 43 43 43 44 44 45 46 47 47 48 49 50 51 51 51 50 49 48 48 49 47 45 45 44 41 40 40 41 42 43 44 44 44 43 43 43 42 42 41 41 41 42 42 43 43 44 45 46 46 45 44 43 42 41 40 39 38 37 36 35 35 35 35 35 36 36
52 52 51 50 50 49 49 49 48 48 47 46 45 45 44 44 44 45 45 46 46 46 45 45 45 46 47 48 49 50 51 52 53 53 53 52 50 49 50 49 47 45 44 42 40 40 41 41 42 42 42 42 41 40 40 40 40 40 39 39 39 40 40 41 42 43 43 42 40 39 37 36 35 35 33 32 31 31 30 30 29 29 30 30 31
52 53 53 52 52 51 51 51 51 50 50 49 49 48 48 47 47 47 47 47 48 48 49 48 48 47 48 49 50 51 52 53 54 54 55 54 52 51 51 51 49 46 44 42 40 39 40 40 41 41 41 41 40 38 37 37 38 38 38 38 38 38 38 39 39 39 38 36 34 33 32 31 30 29 28 27 26 25 24 24 24 24 24 24 24
50 51 52 53 53 53 53 53 53 52 52 51 50 51 51 51 51 50 49 49 49 50 51 52 51 50 50 50 51 51 53 54 55 55 55 55 54 52 51 51 50 47 45 43 40 38 39 40 40 41 41 40 39 37 36 36 36 36 36 36 36 36 36 36 36 34 32 31 30 29 28 27 26 25 24 23 22 21 20 19 19 19 19 19 19
49 50 51 52 53 53 54 54 54 54 53 53 52 52 52 53 53 53 53 53 52 52 53 53 53 53 52 52 52 52 53 54 55 56 57 57 56 54 51 51 50 48 46 44 41 38 38 39 40 40 40 40 39 37 35 35 35 35 35 35 35 34 34 34 33 31 28 27 27 26 26 26 24 23 22 21 20 19 18 18 17 17 17 17 17
48 48 49 50 52 53 54 54 55 55 55 55 54 54 54 54 55 55 55 56 55 56 56 55 55 55 55 55 54 54 54 55 56 57 58 59 58 55 52 52 51 48 46 45 43 39 37 38 39 39 40 40 39 37 35 34 34 34 34 34 34 34 33 32 31 29 27 26 26 26 25 25 24 23 21 21 20 19 19 19 18 18 17 17 17
46 47 48 49 50 52 53 54 55 55 56 56 56 55 55 55 56 56 56 56 57 57 58 58 57 57 57 56 56 55 55 56 57 58 59 60 59 56 54 53 53 50 47 46 44 40 37 37 38 39 39 39 39 38 36 34 34 33 34 34 34 33 33 32 31 29 28 27 27 26 26 25 24 23 22 21 21 20 20 19 19 18 18 18 19
45 46 46 48 49 50 52 53 54 55 56 56 56 56 56 56 56 56 57 57 57 58 58 59 58 58 58 58 57 57 56 57 58 58 60 60 59 57 54 53 53 52 49 47 45 42 38 36 37 39 39 40 39 38 36 35 34 33 33 34 34 34 33 32 32 31 29 29 28 27 26 26 25 24 23 22 22 21 21 21 21 21 21 22 23
44 44 45 47 48 49 50 51 53 54 55 55 56 56 55 55 56 57 57 57 58 58 59 59 59 59 59 59 59 58 58 58 59 59 60 61 60 57 55 54 54 53 51 48 46 44 40 37 37 38 39 40 39 38 37 35 34 34 34 34 35 35 34 34 33 32 31 31 30 29 28 27 27 26 25 25 24 24 25 25 25 25 25 26 26
43 44 44 46 47 48 49 50 51 52 54 54 55 55 55 56 56 57 58 58 58 59 59 60 60 60 60 60 60 59 58 59 60 60 61 61 60 58 56 55 55 54 52 48 47 45 42 39 37 38 39 39 39 38 37 35 34 34 35 36 37 37 36 35 35 34 33 32 32 31 30 30 29 29 28 28 28 28 29 29 29 29 29 29 30
45 44 45 45 46 47 48 49 50 51 52 53 53 54 55 56 57 57 58 59 59 60 60 60 60 60 60 60 60 60 59 59 60 61 62 61 59 58 57 55 55 55 53 49 46 46 44 40 38 38 39 39 39 38 37 35 35 35 36 37 38 38 38 38 37 36 35 34 34 33 33 32 32 32 32 32 32 32 33 33 33 33 33 33 33
47 46 46 46 47 47 48 49 49 50 51 51 52 53 54 55 56 57 58 59 60 60 60 60 60 60 61 60 60 60 59 59 60 61 62 61 59 57 56 55 54 54 54 50 46 45 45 42 39 38 39 39 39 38 37 36 35 35 36 38 39 40 40 40 40 39 38 37 37 36 35 35 34 34 34 35 36 36 36 36 36 36 36 36 36
48 48 48 48 48 48 48 49 49 50 50 50 51 51 52 53 55 57 58 59 59 60 60 60 60 60 60 60 60 59 59 59 60 61 62 60 58 57 56 55 53 54 54 52 47 44 44 44 41 39 39 39 39 38 36 35 35 36 37 38 40 41 42 42 42 42 41 40 40 39 39 38 38 37 37 38 39 39 40 40 40 40 40 40 40
48 49 49 50 50 50 50 50 50 50 50 50 50 51 51 52 53 55 57 58 58 59 60 60 60 59 59 59 59 59 59 59 60 61 60 59 58 56 55 54 53 52 54 54 49 44 43 44 43 40 40 40 39 38 36 35 35 36 37 38 40 42 43 44 45 45 44 44 43 42 42 42 42 41 41 41 42 43 43 43 43 43 43 44 44
47 49 50 50 51 51 51 51 51 50 50 50 50 50 51 51 52 53 55 56 57 58 58 59 58 58 58 58 57 57 58 58 59 59 59 57 57 56 55 54 53 51 52 54 51 46 43 43 43 42 40 40 39 38 36 35 34 35 36 38 40 42 44 45 47 47 47 47 46 46 45 45 45 45 45 45 45 46 46 47 47 47 47 47 47
47 48 49 50 51 52 52 52 52 52 51 51 50 50 50 50 51 52 53 54 55 56 57 57 57 56 56 56 56 56 56 57 57 57 57 56 56 55 54 54 52 51 51 53 53 49 44 42 42 42 41 40 40 38 36 35 34 34 36 37 39 41 44 46 48 49 50 49 49 48 48 48 48 48 48 48 48 49 49 49 50 50 50 51 51
47 47 48 49 51 52 52 53 53 52 52 52 51 51 50 50 50 51 51 51 52 53 54 55 55 54 54 54 54 55 55 56 56 55 55 55 55 55 54 53 52 51 51 52 53 51 46 43 42 42 42 41 40 39 37 35 35 34 35 37 38 40 43 46 48 50 51 51 51 51 51 51 51 51 51 52 52 52 52 52 53 53 53 54 54
47 47 47 48 50 51 52 52 53 53 53 52 52 51 51 51 50 50 50 50 50 51 51 52 53 53 53 53 53 54 54 54 54 54 54 54 54 54 53 53 52 51 50 50 52 51 49 45 42 41 42 41 41 39 38 37 35 35 35 36 37 39 42 44 47 50 51 52 53 53 53 53 53 53 53 54 54 55 56 56 56 56 56 57 57
47 47 47 47 48 50 51 52 52 53 53 53 52 52 51 51 51 51 50 50 50 50 50 50 51 51 52 52 53 53 53 53 53 53 53 54 54 54 53 53 52 51 49 49 50 51 50 47 43 41 41 41 41 40 39 38 37 36 36 36 37 39 41 43 45 48 50 52 53 54 55 55 55 55 55 56 56 57 58 58 59 59 60 60 60
46 47 48 48 48 48 49 50 51 52 52 52 52 52 51 51 51 51 50 50 50 49 49 49 49 50 50 51 51 52 52 52 52 53 53 53 54 54 53 53 51 50 49 48 49 50 51 49 46 42 41 41 41 40 39 39 38 37 36 37 37 38 40 42 44 46 48 50 52 53 55 56 57 58 58 58 58 58 59 59 60 61 62 62 63
47 47 47 48 48 48 48 49 49 50 51 51 51 51 51 51 50 50 50 50 50 49 49 49 49 48 49 50 50 50 51 52 52 52 53 53 54 54 54 53 52 50 48 48 49 50 50 49 47 44 42 41 41 41 40 39 39 39 38 38 38 39 40 41 42 44 46 47 49 51 53 55 57 58 59 60 60 60 61 61 61 62 62 63 64
49 48 47 47 48 48 48 49 49 49 50 50 50 50 50 50 50 50 50 50 49 49 49 49 49 48 48 49 49 50 50 51 52 52 53 53 54 54 54 53 52 50 48 47 48 49 50 49 48 46 43 41 41 42 41 40 40 40 39 39 39 39 40 41 42 44 45 46 47 48 50 52 55 57 58 60 61 62 62 63 63 63 64 64 64
Wind_Direction
235 231 230 230 230 231 231 232 233 233 234 236 239 240 240 241 242 243 244 245 246 247 249 251 252 254 255 255 256 257 258 259 260 262 263 264 265 267 268 269 270 271 273 274 274 274 275 275 276 277 277 278 278 278 278 278 277 276 275 273 271 269 267 265 262 261 264 268 269 269 269 268 268 268 268 268 268 268 268 268 268 268 268 269 270
237 233 232 231 231 232 233 235 235 235 236 237 239 241 242 243 243 244 245 245 246 246 248 249 251 253 255 256 257 258 259 259 260 261 262 263 264 265 266 267 268 269 271 272 272 272 273 273 274 275 276 276 277 277 277 278 278 277 276 275 273 272 269 267 265 262 263 265 268 269 271 271 270 269 270 270 270 270 270 270 269 268 268 268 269
242 236 232 231 230 231 233 235 237 237 238 238 239 241 243 244 245 246 246 246 247 247 247 248 249 251 253 255 256 258 259 260 261 262 263 264 265 265 266 267 268 269 269 270 270 271 271 272 272 273 274 275 275 276 276 276 277 277 276 276 275 275 274 271 269 267 265 265 267 269 271 272 272 272 272 273 273 272 272 272 271 271 270 269 269
245 240 235 233 232 231 231 232 234 236 238 239 240 241 243 245 246 247 248 249 249 249 249 249 250 251 252 254 255 256 258 259 260 262 263 265 266 267 268 268 269 269 269 269 270 270 271 271 272 272 273 274 274 275 275 275 275 276 276 276 276 276 276 275 274 272 270 269 270 270 271 272 274 274 274 274 274 274 274 274 274 273 272 272 271
243 241 237 235 235 235 235 234 234 235 236 238 239 241 242 244 245 247 248 249 250 251 251 251 251 252 253 254 255 256 257 258 259 260 261 263 264 266 267 268 269 269 269 270 270 270 271 271 271 272 272 273 273 274 274 274 274 274 275 275 275 275 275 275 275 275 274 273 273 272 272 273 274 275 275 275 275 275 274 274 274 274 274 273 273
242 239 237 235 236 237 238 239 239 238 238 239 240 241 243 244 245 245 247 248 249 250 251 252 253 253 254 255 256 257 257 258 259 260 261 262 263 264 266 267 267 268 269 269 269 270 270 270 271 271 271 272 272 272 272 273 273 273 273 273 274 274 274 274 274 274 274 274 274 274 273 273 273 273 274 274 274 274 274 274 274 274 274 274 274
245 241 238 237 237 237 238 240 241 241 242 242 242 243 244 246 247 247 248 249 250 251 252 253 254 254 255 256 256 257 258 259 259 260 261 262 263 264 265 266 266 267 268 268 269 269 269 270 270 270 271 271 271 271 271 272 272 272 272 272 272 272 273 273 273 273 273 273 273 273 273 272 272 272 273 273 273 273 273 273 273 273 273 273 273
255 249 244 241 240 240 240 241 242 243 244 244 245 245 245 247 248 249 250 251 251 252 253 254 255 256 256 257 258 259 259 260 261 262 263 263 264 265 265 266 266 266 267 267 268 268 269 269 270 270 270 270 271 271 271 271 271 271 272 272 272 272 272 272 272 272 272 272 272 272 272 272 272 273 273 273 273 273 273 273 273 273 273 273 273
267 261 256 251 247 245 244 244 244 245 246 247 247 248 248 248 248 249 250 251 252 253 253 254 255 256 257 258 259 260 261 262 262 263 264 264 265 265 265 266 266 266 266 267 267 268 268 269 269 270 270 270 271 271 271 271 271 271 271 271 271 271 271 271 272 272 272 272 272 272 272 272 272 272 272 272 272 272 273 273 273 273 273 273 273
282 275 269 264 260 256 252 250 249 248 249 249 250 251 251 251 251 251 251 252 252 253 254 254 255 256 256 257 258 259 260 261 262 263 263 264 264 264 265 265 266 266 266 267 267 268 268 268 269 269 269 269 270 270 270 270 270 270 270 270 270 270 270 270 271 271 271 271 271 271 271 271 271 271 270 270 271 271 271 271 272 272 272 272 273
293 287 282 277 273 269 264 260 258 255 253 253 252 252 253 254 254 254 254 254 254 254 255 255 255 256 256 257 258 259 259 260 261 261 262 263 263 264 264 265 265 266 266 266 267 267 267 268 268 268 268 268 268 268 269 269 269 269 269 270 270 270 270 270 271 271 271 271 271 271 271 271 271 271 270 270 270 270 271 271 271 272 272 272 273
297 293 289 286 283 280 277 273 269 266 263 260 258 257 256 255 256 256 256 257 257 257 257 257 257 257 258 258 259 259 260 260 261 261 262 262 263 263 264 264 264 265 265 265 266 266 267 267 267 267 268 268 268 268 269 269 269 269 270 270 270 270 271 271 271 271 271 272 272 272 272 272 272 272 272 271 271 271 272 272 272 272 272 272 273
305 301 296 292 289 287 285 282 279 276 272 269 266 264 262 261 259 259 258 258 258 259 259 259 259 259 260 260 260 261 261 261 262 262 263 263 264 264 264 265 265 265 265 266 266 266 267 267 268 268 268 269 269 269 269 270 270 270 270 270 271 271 271 271 271 271 272 272 272 272 272 272 272 272 273 272 272 273 273 272 272 272 272 272 273
318 313 307 302 298 294 291 289 286 283 281 278 275 271 269 267 265 264 262 261 261 260 260 260 260 260 261 261 261 261 262 262 263 263 264 264 264 265 265 266 266 267 267 267 268 268 268 268 269 269 269 270 270 270 270 271 271 271 271 271 271 271 271 271 272 272 272 272 272 272 273 273 273 273 273 273 273 273 273 273 273 273 273 273 273
326 322 317 311 306 302 298 294 290 288 285 283 281 278 275 272 270 268 266 265 265 264 263 262 262 262 262 262 262 262 262 263 263 263 264 264 264 265 265 266 266 267 267 268 268 269 269 269 270 270 270 270 271 271 271 272 272 272 272 272 272 272 272 272 272 272 272 272 273 273 273 273 273 274 274 274 274 273 273 273 273 273 273 273 273
326 325 321 317 313 309 304 299 294 290 287 284 282 281 279 277 275 272 270 268 267 266 265 265 264 264 264 264 264 264 264 264 264 265 265 265 265 266 266 266 267 267 267 268 269 269 270 270 271 271 271 272 272 272 272 272 271 271 272 272 272 272 272 273 273 273 273 273 273 273 273 274 274 274 274 274 273 273 273 273 273 273 273 273 273
324 323 322 320 317 314 310 305 301 296 292 288 285 283 281 279 277 276 274 273 271 269 268 267 266 266 266 266 266 266 266 266 266 267 267 267 268 268 268 268 269 269 269 270 270 270 271 271 272 272 272 272 272 272 272 272 272 271 271 271 271 271 271 271 272 273 273 273 273 273 273 273 273 273 273 273 273 273 273 273 272 272 273 273 273
321 322 322 320 318 316 313 310 307 304 300 296 291 286 284 281 279 277 276 275 274 273 272 271 270 270 270 269 269 269 269 269 269 269 270 270 270 271 271 271 271 271 271 272 272 272 273 273 273 273 273 272 272 272 271 271 271 271 271 271 271 270 270 270 271 271 272 272 272 272 272 272 273 273 273 273 273 273 273 273 273 273 273 273 273
317 319 320 320 319 317 315 312 310 308 306 302 298 293 290 287 284 281 279 278 278 277 276 275 274 274 274 274 274 274 274 273 273 274 274 274 274 274 274 274 274 274 273 274 274 274 273 273 273 273 273 273 273 272 272 272 271 271 271 270 270 270 270 270 270 270 270 271 271 271 271 271 272 272 272 272 272 272 273 272 272 272 273 273 273
313 314 316 317 318 318 317 315 312 310 308 306 303 300 296 293 290 287 285 283 282 282 281 280 279 278 277 277 277 277 277 277 276 277 277 277 277 277 277 277 277 277 277 276 276 276 275 274 273 273 273 272 272 272 273 273 273 273 273 272 272 272 272 272 272 272 272 272 272 272 271 271 271 271 272 272 272 272 272 272 272 272 272 271 271
309 310 312 313 315 316 317 317 316 314 312 309 307 305 302 300 297 294 292 289 287 286 285 285 285 285 284 283 283 282 282 281 280 280 279 280 280 280 280 280 280 280 280 279 279 278 277 277 276 275 274 274 273 273 273 273 273 274 275 275 275 276 275 275 275 275 275 275 275 274 274 273 273 273 273 273 273 273 273 273 272 272 271 271 270
305 306 307 309 311 312 314 315 316 316 315 314 312 310 308 306 304 302 299 297 294 292 290 289 289 289 291 291 290 289 288 287 287 286 286 285 285 285 285 285 284 284 284 283 282 281 280 279 278 277 277 276 276 276 275 275 274 274 275 275 276 277 278 278 278 278 278 277 277 276 276 275 275 275 275 274 274 274 273 273 272 272 271 270 269
300 301 302 304 306 308 310 311 313 314 314 314 314 313 312 311 309 308 306 304 302 300 297 295 294 292 292 292 292 292 291 290 290 291 291 291 290 290 289 288 288 287 287 287 286 285 284 283 282 281 280 279 279 278 277 277 276 275 275 275 276 277 277 278 279 279 279 279 279 278 278 277 277 277 277 276 275 274 274 273 272 271 271 270 269
293 295 297 299 301 303 305 307 308 310 311 312 313 313 313 313 313 312 311 310 308 306 305 303 301 299 297 295 294 293 293 293 293 293 293 294 294 294 293 291 290 289 288 287 287 287 286 285 284 284 283 283 282 281 279 278 277 276 276 275 275 275 276 277 278 278 279 279 280 280 280 280 280 280 280 279 277 276 274 273 272 271 271 270 269
287 289 291 294 296 297 300 302 304 305 307 308 309 311 311 312 313 313 313 312 312 311 310 309 307 306 304 303 302 300 299 299 298 297 297 297 298 298 298 297 296 294 291 289 288 287 286 286 286 287 287 287 286 285 282 280 278 276 275 275 275 274 275 276 277 278 279 280 280 281 281 282 282 281 280 279 278 277 275 273 271 270 268 267 266
284 285 286 288 290 292 294 296 299 301 303 304 306 307 309 310 311 311 312 312 312 312 312 311 311 310 309 308 308 308 307 306 306 305 304 303 302 301 302 301 300 298 296 294 291 289 288 287 287 288 288 288 288 287 285 283 280 277 275 275 275 275 276 277 279 279 280 280 281 282 282 283 283 282 281 280 279 278 276 274 271 267 264 263 263
284 284 284 285 286 288 290 292 294 296 298 300 302 303 305 306 308 309 310 311 311 311 311 311 311 311 312 311 311 311 311 311 311 311 310 309 308 306 305 304 303 301 299 297 294 292 291 289 289 289 289 289 288 287 285 284 282 279 276 275 276 277 277 279 280 280 281 282 283 283 283 283 283 282 281 280 280 279 277 274 270 266 263 262 262
284 284 284 284 284 285 286 288 290 292 294 296 298 299 300 302 303 305 306 308 309 309 310 310 311 311 312 312 313 313 313 313 313 313 313 313 312 311 310 309 307 305 302 299 297 295 294 293 292 291 290 289 288 287 285 284 283 280 277 275 275 276 277 279 280 281 282 284 285 285 284 284 283 283 282 281 280 279 277 274 270 267 264 263 262
283 283 283 284 284 283 284 284 285 287 289 291 293 296 297 298 299 300 302 303 305 306 307 308 309 309 310 310 311 311 311 312 312 312 313 313 313 313 312 312 312 309 307 304 301 299 297 296 295 293 292 290 289 287 285 283 282 280 277 274 274 275 276 278 280 282 284 285 285 285 285 285 285 285 285 284 282 280 278 274 271 268 264 261 259
281 281 281 282 282 282 282 282 283 284 285 286 288 290 292 294 296 297 298 299 300 301 302 303 304 305 306 307 307 308 308 309 310 311 311 312 312 313 313 313 314 313 310 308 305 303 301 299 298 297 295 292 290 288 285 284 282 279 276 273 273 274 276 278 280 282 284 284 284 285 286 288 288 288 287 286 284 281 279 275 271 267 264 260 258
280 280 280 279 279 280 280 280 281 282 283 284 285 286 287 288 290 292 294 295 297 297 298 299 300 301 302 303 304 305 306 307 309 310 311 311 312 313 314 314 315 314 313 311 309 307 305 303 302 300 299 296 293 290 287 285 282 279 276 274 274 274 276 278 281 282 283 283 284 286 288 289 290 290 289 287 285 282 279 275 271 267 263 260 258
279 278 278 278 278 278 278 279 279 280 281 282 284 285 285 286 286 287 289 291 293 295 296 297 297 298 299 301 302 304 305 307 308 309 310 311 313 314 315 315 315 315 315 313 311 310 308 306 305 304 302 300 297 293 290 286 282 279 276 274 274 275 276 279 280 281 281 282 284 286 288 289 290 291 291 289 287 283 279 275 271 266 262 258 254
279 278 278 277 277 277 277 278 278 279 280 280 281 283 284 285 285 285 286 287 289 291 293 295 296 298 299 300 302 303 304 306 307 309 310 311 312 314 315 315 315 316 316 315 313 312 310 308 307 306 305 303 300 296 292 288 284 279 276 274 273 275 276 278 279 279 280 282 284 285 286 288 290 292 293 293 291 287 282 276 269 263 257 252 248
280 279 278 277 277 277 277 278 278 279 279 280 280 281 282 283 284 285 286 286 288 289 290 292 294 296 297 299 300 302 304 306 307 309 310 310 311 312 314 314 315 316 318 317 315 314 312 309 308 307 306 305 302 298 293 289 285 280 276 273 273 274 275 276 276 275 277 279 281 282 284 286 287 289 290 291 290 286 281 275 268 262 258 254 252
282 280 279 278 277 277 277 277 278 278 279 279 280 280 281 282 283 284 285 286 288 289 290 292 293 295 297 299 301 303 305 306 307 308 308 308 309 311 314 315 315 317 318 318 317 315 313 310 308 307 307 305 303 299 294 290 285 280 275 272 272 272 273 273 272 271 271 273 274 277 279 281 282 282 283 283 282 280 277 274 270 266 263 260 257
283 281 280 279 278 277 277 277 277 277 278 278 279 279 280 281 282 283 284 285 287 288 290 292 293 295 297 298 300 302 303 304 305 305 306 307 308 311 314 315 315 316 318 319 318 316 315 312 309 308 307 305 303 300 295 290 285 280 275 271 270 270 270 270 268 267 267 268 269 271 273 274 274 274 274 274 274 273 271 269 267 264 261 258 256
285 283 281 280 279 278 277 277 277 277 277 277 278 278 279 280 281 282 283 284 285 287 289 290 292 294 295 296 298 299 300 302 303 304 305 305 306 309 312 314 315 316 318 320 319 317 316 313 310 308 307 306 304 300 295 289 284 279 274 269 267 267 267 266 266 265 265 265 266 266 266 267 267 267 266 265 264 263 262 260 259 258 257 255 254
288 285 283 282 281 280 279 278 277 277 277 277 278 278 279 279 280 281 281 283 284 285 287 289 291 293 294 296 297 298 299 301 302 303 303 304 306 309 312 314 315 315 317 320 320 318 316 315 311 309 308 306 304 301 296 290 284 278 272 266 263 263 262 263 263 262 263 263 263 262 262 261 261 260 258 257 256 255 255 255 254 255 255 255 255
289 287 284 283 282 281 280 280 279 278 278 278 279 279 280 279 280 280 281 282 283 284 285 287 289 291 292 294 295 297 298 299 301 302 303 304 306 309 311 313 314 315 316 319 320 318 317 315 313 310 308 307 304 301 297 291 285 278 271 266 262 260 259 259 259 260 260 261 260 259 258 257 257 256 254 253 252 252 252 252 252 253 254 255 256
291 288 286 284 282 281 281 280 280 280 280 280 280 280 279 279 279 280 280 281 282 283 284 285 287 288 290 292 293 295 297 298 300 301 301 303 305 308 310 312 313 314 315 317 319 319 317 315 313 312 310 308 305 302 297 292 286 278 272 267 263 260 259 258 258 258 258 258 257 257 255 255 254 254 253 253 253 254 254 254 254 254 255 257 258
291 289 287 285 283 282 281 280 280 280 281 281 280 280 279 279 279 279 280 280 281 282 283 284 285 287 288 290 292 294 295 297 298 299 299 301 304 306 308 310 312 313 313 315 318 319 317 315 314 312 311 309 306 303 298 293 287 280 273 268 265 262 260 259 258 258 257 257 256 255 254 253 252 252 252 253 254 255 257 257 257 257 258 259 260
290 289 288 286 284 283 281 281 280 280 280 280 281 280 280 279 278 278 278 279 280 281 282 283 284 286 287 289 291 292 294 295 296 297 298 300 303 305 306 308 311 312 313 314 317 319 317 315 314 313 312 310 308 304 299 294 288 283 276 270 266 263 261 259 259 258 258 257 256 254 253 252 251 250 251 252 253 254 256 257 259 259 260 260 261
290 288 287 286 285 284 283 281 281 280 279 279 280 280 280 280 280 279 279 279 280 281 282 283 284 285 287 288 290 292 293 294 294 295 297 299 302 303 305 307 310 311 312 312 315 318 318 315 313 313 313 312 309 306 301 295 290 285 279 273 268 263 261 260 259 258 258 258 257 256 254 253 251 250 250 250 252 253 255 256 258 260 261 262 263
291 289 287 286 285 284 283 282 281 280 279 279 278 278 279 280 280 281 281 281 281 282 282 284 285 286 287 288 290 291 291 292 292 294 296 299 300 302 304 306 309 311 311 311 313 316 317 315 313 313 313 312 311 307 303 298 292 287 282 276 271 265 262 260 259 258 258 258 258 258 257 256 254 253 252 252 252 253 254 256 258 259 261 262 264
294 291 288 286 285 284 283 282 281 281 280 279 278 278 278 279 279 281 282 282 283 283 284 284 285 287 288 288 289 290 290 291 292 294 296 298 299 301 303 305 307 310 310 310 311 314 316 315 313 312 312 312 311 309 305 300 295 290 284 279 274 268 264 261 259 259 258 258 258 258 259 258 258 257 256 255 255 255 255 256 258 259 260 262 264
297 294 290 287 285 284 283 282 281 281 280 279 279 278 278 278 278 279 281 282 283 284 285 285 286 286 287 288 288 289 289 291 292 294 296 297 298 300 302 304 306 308 309 309 310 312 314 315 313 312 312 312 312 310 307 303 299 294 288 282 277 272 267 263 261 260 260 259 259 258 259 259 259 259 259 258 258 258 258 258 259 260 261 263 264
300 297 293 290 287 285 283 282 281 281 280 280 279 279 279 278 279 279 280 281 283 284 285 285 286 286 286 287 287 288 289 291 292 294 295 296 297 299 301 303 305 307 308 308 308 310 312 313 313 311 310 311 312 311 309 306 302 298 292 286 281 275 270 266 264 262 261 261 260 259 259 259 259 260 260 260 260 260 260 260 261 262 263 264 265
303 300 297 294 290 287 285 283 282 281 280 280 279 279 279 279 279 279 280 281 282 283 284 285 286 286 286 287 287 288 289 291 292 293 294 295 297 298 300 301 303 305 306 307 307 308 309 311 312 311 310 310 311 311 311 309 306 302 297 291 285 279 274 270 267 265 264 263 262 261 261 260 260 260 260 261 261 261 262 262 262 263 264 265 266
305 303 300 297 294 291 287 285 283 281 280 280 279 278 278 278 278 278 279 280 281 282 283 285 286 286 287 287 287 288 289 290 291 292 293 295 296 297 299 300 302 303 305 305 306 306 307 309 310 310 309 308 309 310 311 310 308 305 301 295 290 283 277 273 270 268 267 266 265 264 263 262 261 261 261 261 261 262 262 263 264 264 265 266 267
307 304 302 300 297 294 291 288 285 283 281 280 279 278 278 278 278 278 278 279 280 281 282 283 284 285 286 287 287 288 289 289 290 291 293 294 295 296 297 299 300 302 304 304 305 305 306 307 308 308 308 307 308 309 310 310 310 308 304 300 294 288 282 276 273 270 269 269 268 267 266 265 264 263 263 263 262 262 263 263 264 265 266 267 268
308 306 304 302 299 297 294 291 288 286 283 281 280 279 279 278 278 278 278 278 279 280 281 282 283 284 285 286 287 288 289 289 290 291 292 293 294 295 296 298 299 301 302 303 303 303 304 305 306 307 307 307 307 308 309 309 309 308 306 303 298 292 286 280 276 272 271 271 271 271 270 269 268 267 266 266 265 265 265 265 265 266 267 267 268